[[{"header":{"parameterUnit":"m.s-1","parameterCategory":1,"la1":30.2991,"la2":30.254,"lo1":-89.0895,"lo2":-89.0444,"dx":0.0017,"dy":0.0017,"nx":28,"ny":28,"refTime":"2022-12-12T03:00:00:Z","depth":0,"parameterNumber":2,"parameterNumberName":"U-component_of_WINDS"},"data":[0,0,0,0,0,0,0,0,0,0,0,0,0,0,0,0,0,0,0,0,0,0,0,0,0,0,0,0,0,0,0,0,0,0,0,0,0,0,0,0,0,0,0,0,0,0,0,0,0,0,0,0,0,0,0,0,0,0,-0.0885,-0.0884,0,-0.0803,-0.0802,-0.0801,-0.0791,-0.0792,-0.0793,-0.0794,-0.071,-0.0707,-0.0704,0,0,0,0,0,0,0,0,0,0,0,0,0,-0.1033,-0.103,-0.0885,-0.0884,-0.0883,-0.0803,-0.0802,-0.0801,-0.0791,-0.0792,-0.0793,-0.0794,-0.0711,-0.0707,-0.0703,0,0,0,0,0,0,0,0,0,0,0,0,0,-0.0962,-0.1029,-0.0885,-0.0868,-0.0866,-0.0803,-0.0802,-0.08,-0.0791,-0.0792,-0.0793,-0.0794,-0.0712,-0.0707,-0.0703,-0.0651,0,0,-0.0689,-0.0687,0,0,0,0,0,0,0,0,-0.0966,-0.0956,-0.0872,-0.0869,-0.0867,-0.0808,-0.0823,-0.075,-0.0791,-0.0819,-0.0794,-0.0795,-0.0741,-0.0735,-0.0717,-0.0647,-0.0643,-0.0689,-0.0686,-0.0684,-0.0683,0,0,0,0,0,0,0,-0.0971,-0.096,-0.0852,-0.0871,-0.0867,-0.0865,-0.0856,-0.0809,-0.0775,-0.0817,-0.0816,-0.0806,-0.074,-0.0721,-0.0715,-0.0642,-0.0689,-0.0685,-0.0682,-0.068,-0.0526,-0.0525,0,0,0,0,0,0,-0.0979,-0.0964,-0.0855,-0.085,-0.092,-0.0861,-0.0851,-0.0826,-0.0775,-0.0769,-0.0806,-0.0806,-0.0728,-0.072,-0.0712,-0.0647,-0.0684,-0.068,-0.0677,-0.0528,-0.0526,-0.0524,0,0,0,0,0,0,-0.0982,-0.0969,-0.0858,-0.0906,-0.0892,-0.0857,-0.0829,-0.0824,-0.0804,-0.0766,-0.076,-0.0792,-0.0729,-0.0718,-0.0666,-0.0644,-0.0678,-0.0674,-0.0529,-0.0527,-0.0525,-0.0519,0,0,0,0,0,0,-0.0986,-0.097,-0.095,-0.0906,-0.089,-0.0814,-0.0827,-0.0821,-0.0796,-0.0797,-0.0752,-0.0746,-0.0729,-0.0673,-0.0662,-0.0639,-0.067,-0.0531,-0.0528,-0.0526,-0.0521,-0.0517,-0.0513,0,0,0,0,0,-0.0991,-0.0951,-0.0949,-0.0936,-0.0864,-0.0813,-0.0803,-0.0784,-0.0795,-0.0774,-0.075,-0.0747,-0.0649,-0.0668,-0.0655,-0.063,-0.0532,-0.0529,-0.0526,-0.0523,-0.0518,-0.0513,0,0,0,0,0,0,-0.0993,-0.0945,-0.0942,-0.0887,-0.0854,-0.0811,-0.0785,-0.078,-0.0743,-0.0745,-0.0723,-0.0713,-0.0662,-0.0641,-0.0663,-0.0578,-0.0592,-0.0586,-0.0593,-0.0588,-0.0585,-0.0591,-0.0667,0,0,0,0,0,-0.0987,-0.095,-0.091,-0.0865,-0.0849,-0.082,-0.0797,-0.0785,-0.075,-0.0736,-0.0708,-0.0674,-0.0636,-0.0611,-0.0573,-0.0518,-0.0508,-0.0495,-0.0491,-0.0488,-0.0483,-0.0453,-0.0447,-0.0514,-0.0514,-0.0514,0,0,-0.0975,-0.0944,-0.0921,-0.0865,-0.0838,-0.08,-0.0808,-0.0767,-0.0739,-0.073,-0.0679,-0.0658,-0.0619,-0.0565,-0.054,-0.0546,-0.0463,-0.0484,-0.0482,-0.0479,-0.0449,-0.0443,-0.0437,-0.0512,-0.0512,-0.0513,0,0,-0.0932,-0.0905,-0.0864,-0.0837,-0.0797,-0.0778,-0.0768,-0.0726,-0.0711,-0.066,-0.0653,-0.0619,-0.0553,-0.0526,-0.0503,-0.045,-0.0447,-0.0439,-0.0419,-0.039,-0.0384,-0.038,-0.0361,-0.0355,-0.0434,-0.0434,-0.0434,0,-0.0921,-0.0863,-0.0844,-0.0803,-0.0779,-0.0769,-0.0728,-0.0703,-0.0652,-0.0636,-0.0643,-0.056,-0.0533,-0.0473,-0.046,-0.0442,-0.0431,-0.0444,-0.0387,-0.0382,-0.0377,-0.0359,-0.0352,-0.0433,-0.0434,-0.0434,-0.0434,0,-0.0852,-0.0812,-0.0784,-0.0736,-0.0708,-0.0667,-0.0642,-0.0616,-0.0607,-0.0587,-0.0536,-0.0503,-0.0459,-0.0444,-0.0435,-0.0383,-0.0388,-0.0391,-0.0405,-0.037,-0.0353,-0.0346,-0.0432,-0.0433,-0.0433,-0.0433,0,0,-0.0807,-0.0749,-0.0739,-0.0717,-0.0672,-0.0641,-0.06,-0.0557,-0.0535,-0.0501,-0.0466,-0.0411,-0.0414,-0.0388,-0.0376,-0.035,-0.0311,-0.0357,-0.0355,-0.035,-0.0252,-0.025,-0.0243,-0.0308,-0.0307,-0.0306,-0.0256,0,-0.0759,-0.0686,-0.0668,-0.0606,-0.0569,-0.056,-0.0524,-0.0493,-0.0474,-0.044,-0.0418,-0.0379,-0.0386,-0.0371,-0.0345,-0.0321,-0.0291,-0.0325,-0.0276,-0.0275,-0.0286,-0.0234,-0.0231,-0.0185,-0.0249,-0.0248,-0.0247,0,-0.0693,-0.0658,-0.0592,-0.0552,-0.0536,-0.0504,-0.0463,-0.0431,-0.0395,-0.0383,-0.0355,-0.0345,-0.0303,-0.0319,-0.026,-0.0283,-0.0262,-0.0248,-0.0246,-0.0241,-0.0259,-0.0227,-0.017,-0.0163,-0.0236,-0.0237,-0.0238,0,-0.0668,-0.0603,-0.0555,-0.0537,-0.0489,-0.0467,-0.0446,-0.0412,-0.0387,-0.0352,-0.0336,-0.0296,-0.0274,-0.0244,-0.0223,-0.0237,-0.0167,-0.0181,-0.0156,-0.0156,-0.0141,-0.0143,-0.008,-0.0128,-0.0128,-0.0128,-0.0128,0,-0.0616,-0.0576,-0.0543,-0.0514,-0.0469,-0.0449,-0.0405,-0.0384,-0.0354,-0.032,-0.031,-0.0279,-0.0254,-0.022,-0.0204,-0.0158,-0.0149,-0.0138,-0.0134,-0.0139,-0.014,-0.0125,-0.0128,-0.0126,-0.0127,-0.0127,-0.0127,0,-0.058,-0.0556,-0.0504,-0.0463,-0.0452,-0.0421,-0.0386,-0.0357,-0.0338,-0.0296,-0.0285,-0.0254,-0.0213,-0.019,-0.0139,-0.0128,-0.0078,-0.0075,-0.009,-0.0088,-0.0064,-0.0067,0.001,0.002,-0.0034,-0.0034,-0.0033,0,-0.0548,-0.0517,-0.0473,-0.045,-0.0429,-0.0392,-0.0367,-0.0346,-0.032,-0.0278,-0.0254,-0.0213,-0.0179,-0.0114,-0.0088,-0.0049,-0.0046,-0.0021,-0.004,-0.0046,-0.0046,-0.0048,-0.0045,-0.0018,-0.0018,-0.0017,-0.0017,0,-0.0495,-0.0485,-0.0449,-0.0409,-0.038,-0.0348,-0.0316,-0.0297,-0.0271,-0.0243,-0.0201,-0.0175,-0.0123,-0.0082,-0.0041,-0.002,-0.0014,-0.0012,-0.0004,-0.0008,-0.0018,-0.0013,-0.0081,-0.0013,-0.0014,-0.0014,-0.0014,-0.0014,-0.046,-0.0432,-0.0397,-0.0358,-0.0332,-0.0302,-0.0274,-0.0251,-0.0215,-0.0171,-0.0161,-0.0117,-0.0083,-0.0027,-0.0005,0.0029,0.0025,0.0036,0.0039,0.0041,0.0042,-0.0024,0.0037,0.0037,0.0036,0.0036,0.0036,0,-0.0406,-0.0383,-0.0347,-0.0303,-0.0272,-0.027,-0.0235,-0.0209,-0.0171,-0.0139,-0.0106,-0.0058,-0.0019,0.001,0.005,0.0072,0.0076,0.0082,0.008,0.0085,0.0044,0.0033,0.0078,0.0078,0.0078,0.0078,0.0078,0.0078,-0.0375,-0.0328,-0.0314,-0.0254,-0.0232,-0.0189,-0.0169,-0.0142,-0.0117,-0.0064,-0.0031,-0.0012,0.0018,0.006,0.0096,0.0104,0.0118,0.0124,0.0131,0.0092,0.0088,0.0084,0.0074,0.0127,0.0127,0.017,0.017,0.0171]},{"header":{"parameterUnit":"m.s-1","parameterCategory":1,"la1":30.2991,"la2":30.254,"lo1":-89.0895,"lo2":-89.0444,"dx":0.0017,"dy":0.0017,"nx":28,"ny":28,"refTime":"2022-12-12T03:00:00:Z","depth":0,"parameterNumber":3,"parameterNumberName":"V-component_of_WINDS"},"data":[0,0,0,0,0,0,0,0,0,0,0,0,0,0,0,0,0,0,0,0,0,0,0,0,0,0,0,0,0,0,0,0,0,0,0,0,0,0,0,0,0,0,0,0,0,0,0,0,0,0,0,0,0,0,0,0,0,0,0.2295,0.2295,0,0.2277,0.2276,0.2276,0.2249,0.2249,0.2249,0.2248,0.2227,0.2227,0.2227,0,0,0,0,0,0,0,0,0,0,0,0,0,0.2303,0.2303,0.2295,0.2295,0.2295,0.2277,0.2276,0.2276,0.225,0.2249,0.2248,0.2248,0.2227,0.2227,0.2227,0,0,0,0,0,0,0,0,0,0,0,0,0,0.2293,0.2303,0.2295,0.2279,0.2278,0.2277,0.2276,0.2276,0.225,0.2249,0.2248,0.2248,0.2227,0.2227,0.2227,0.224,0,0,0.2226,0.2226,0,0,0,0,0,0,0,0,0.2294,0.2293,0.2282,0.228,0.2278,0.2265,0.2271,0.2264,0.225,0.226,0.2248,0.2247,0.224,0.2239,0.2237,0.2239,0.2238,0.2226,0.2226,0.2226,0.2226,0,0,0,0,0,0,0,0.2294,0.2294,0.2288,0.2282,0.228,0.2271,0.2269,0.227,0.2254,0.2259,0.2257,0.2256,0.2239,0.2237,0.2236,0.2238,0.2226,0.2226,0.2226,0.2226,0.2245,0.2245,0,0,0,0,0,0,0.2298,0.2294,0.2288,0.2287,0.2285,0.2272,0.227,0.227,0.2254,0.2251,0.2256,0.2254,0.2238,0.2236,0.2235,0.2247,0.2226,0.2226,0.2226,0.2244,0.2245,0.2245,0,0,0,0,0,0,0.2298,0.2298,0.2289,0.229,0.2288,0.2273,0.2273,0.227,0.2268,0.2252,0.2249,0.2257,0.2237,0.2236,0.2238,0.2246,0.2226,0.2226,0.2243,0.2244,0.2245,0.2271,0,0,0,0,0,0,0.2299,0.2298,0.2304,0.2291,0.2289,0.2294,0.2274,0.227,0.2268,0.2265,0.2252,0.2249,0.2237,0.2238,0.2238,0.2245,0.2226,0.2243,0.2244,0.2245,0.2269,0.2273,0.2275,0,0,0,0,0,0.2299,0.2312,0.2304,0.2304,0.2296,0.2294,0.2293,0.2279,0.2269,0.2273,0.2262,0.225,0.2245,0.2239,0.2238,0.2245,0.2242,0.2243,0.2245,0.2268,0.2272,0.2275,0,0,0,0,0,0,0.2327,0.231,0.2301,0.2311,0.2304,0.229,0.2296,0.2284,0.2279,0.2277,0.2259,0.2256,0.226,0.2253,0.2246,0.2255,0.2241,0.2242,0.2259,0.2263,0.2266,0.2267,0.2226,0,0,0,0,0,0.2335,0.2336,0.2321,0.233,0.2327,0.2312,0.2311,0.23,0.2292,0.2289,0.2278,0.227,0.2266,0.2264,0.226,0.2268,0.2263,0.2272,0.2275,0.2278,0.2279,0.2279,0.2282,0.225,0.225,0.225,0,0,0.235,0.2341,0.2343,0.2336,0.2329,0.2329,0.231,0.2311,0.231,0.2289,0.229,0.2282,0.2271,0.2275,0.2277,0.2269,0.2286,0.228,0.2282,0.2281,0.2281,0.2284,0.2287,0.2251,0.2251,0.225,0,0,0.2377,0.2372,0.2378,0.2371,0.2361,0.235,0.2351,0.2338,0.2331,0.2332,0.2315,0.2313,0.2308,0.23,0.2295,0.2316,0.2303,0.2315,0.2331,0.2331,0.2334,0.2336,0.2341,0.2343,0.2316,0.2316,0.2316,0,0.2397,0.2397,0.2382,0.2384,0.238,0.236,0.2365,0.2359,0.2348,0.2345,0.2337,0.2328,0.2319,0.232,0.2325,0.2322,0.2321,0.2316,0.2335,0.2337,0.2338,0.2343,0.2345,0.2318,0.2318,0.2317,0.2317,0,0.2421,0.2421,0.2427,0.2416,0.2413,0.2416,0.24,0.2398,0.2387,0.2376,0.2375,0.2364,0.2356,0.2355,0.2345,0.2354,0.2349,0.2339,0.2324,0.2343,0.2347,0.2349,0.232,0.2319,0.2319,0.2318,0,0,0.2467,0.2446,0.2448,0.2441,0.2428,0.2427,0.2427,0.242,0.2417,0.241,0.2408,0.2403,0.2392,0.2386,0.2374,0.2375,0.2389,0.2364,0.2363,0.2367,0.2394,0.2401,0.2404,0.238,0.238,0.238,0.2394,0,0.249,0.2491,0.2476,0.2481,0.2479,0.2458,0.2459,0.2449,0.2439,0.2434,0.2422,0.2417,0.2405,0.2401,0.24,0.2387,0.2394,0.2386,0.2376,0.2376,0.2379,0.2406,0.2415,0.2429,0.2396,0.2396,0.2396,0,0.2517,0.251,0.2515,0.2498,0.2496,0.2497,0.2487,0.2484,0.2471,0.2463,0.2456,0.2442,0.2439,0.2426,0.2421,0.2416,0.241,0.2403,0.2403,0.2401,0.2387,0.2403,0.2433,0.2434,0.2399,0.2399,0.2399,0,0.2547,0.2539,0.254,0.2535,0.2516,0.2517,0.2509,0.2495,0.2491,0.2481,0.2477,0.2468,0.2462,0.2454,0.2437,0.243,0.2432,0.2419,0.2424,0.2424,0.2425,0.2425,0.2453,0.2424,0.2424,0.2424,0.2424,0,0.2574,0.2577,0.2553,0.2553,0.2555,0.2536,0.2538,0.2528,0.2516,0.2512,0.2494,0.2491,0.2469,0.2462,0.2449,0.2445,0.2443,0.2435,0.2431,0.2436,0.2436,0.2431,0.243,0.2424,0.2424,0.2424,0.2424,0,0.2607,0.2592,0.2591,0.2572,0.2568,0.2569,0.2553,0.2551,0.2539,0.2534,0.2532,0.2512,0.2503,0.2485,0.2472,0.2462,0.246,0.2455,0.2465,0.2462,0.2468,0.2467,0.2492,0.2494,0.2465,0.2466,0.2466,0,0.2625,0.2626,0.2608,0.2604,0.2596,0.2591,0.2586,0.2567,0.2562,0.2546,0.2546,0.2536,0.2526,0.2513,0.2496,0.2485,0.2477,0.2487,0.2475,0.2479,0.2475,0.2475,0.2474,0.2489,0.249,0.249,0.249,0,0.2656,0.2648,0.2641,0.2631,0.2625,0.2616,0.2606,0.2604,0.2582,0.2577,0.2568,0.2561,0.2546,0.2535,0.2521,0.251,0.2496,0.2494,0.2494,0.2499,0.2504,0.2499,0.247,0.2493,0.2493,0.2493,0.2493,0.2493,0.2681,0.268,0.2666,0.2659,0.2649,0.2639,0.2636,0.2623,0.2615,0.2602,0.2591,0.2582,0.2566,0.2546,0.2536,0.2527,0.2521,0.2522,0.2521,0.2522,0.2523,0.2506,0.2525,0.2525,0.2525,0.2524,0.2524,0,0.271,0.2699,0.2693,0.2679,0.2672,0.266,0.2647,0.2642,0.2634,0.2622,0.2612,0.26,0.2589,0.2571,0.2557,0.2554,0.2547,0.2551,0.255,0.2548,0.2531,0.2531,0.2557,0.2557,0.2557,0.2557,0.2557,0.2557,0.2724,0.2721,0.2711,0.2702,0.2691,0.2683,0.2677,0.2667,0.2656,0.2644,0.2634,0.2623,0.2607,0.2591,0.258,0.2574,0.257,0.2576,0.2568,0.2552,0.2549,0.2546,0.2546,0.2575,0.2575,0.2585,0.2586,0.2586]}]]